When you browse on this site, cookies collect data to enhance your experience and personalize the content and advertising you see.
Visit our Privacy Policy to learn more. By continuing to use the site, you agree to this use of cookies and data.
  • In Portugal
  • List of Countries
  • For 7 days
  • Water Temperature
  • Weather Map
  • Weather Widgets
  • user-avatar
    Login

    Hourly Weather Marinovka

    Today, 26 August, Monday

    Time Temperature Precipitation Wind Pressure Humidity
    00:00 +12°C° 0 mm 2 mps 754 mmHg 87%
    01:00 +12°C° 0 mm 2 mps 755 mmHg 89%
    02:00 +12°C° 0 mm 2 mps 755 mmHg 90%
    03:00 +10°C° 0 mm 2 mps 755 mmHg 92%
    04:00 +10°C° 0 mm 2 mps 755 mmHg 92%
    05:00 +10°C° 0 mm 2 mps 755 mmHg 93%
    06:00 +10°C° 0 mm 2 mps 755 mmHg 93%
    07:00 +13°C° 0 mm 2 mps 756 mmHg 85%
    08:00 +15°C° 0 mm 2 mps 756 mmHg 77%
    09:00 +16°C° 0 mm 2 mps 756 mmHg 70%
    10:00 +19°C° 0 mm 1 mps 756 mmHg 64%
    11:00 +20°C° 0 mm 1 mps 756 mmHg 59%
    12:00 +21°C° 0 mm 1 mps 756 mmHg 53%
    13:00 +22°C° 0 mm 1 mps 755 mmHg 51%
    14:00 +22°C° 0 mm 1 mps 755 mmHg 49%
    15:00 +23°C° 0 mm 1 mps 755 mmHg 47%
    16:00 +22°C° 0 mm 1 mps 755 mmHg 50%
    17:00 +22°C° 0 mm 1 mps 754 mmHg 54%
    18:00 +21°C° 0 mm 1 mps 754 mmHg 58%
    19:00 +20°C° 0 mm 1 mps 753 mmHg 62%
    20:00 +18°C° 0 mm 1 mps 753 mmHg 66%
    21:00 +15°C° 0 mm 1 mps 753 mmHg 70%
    22:00 +15°C° 0 mm 1 mps 753 mmHg 72%
    23:00 +15°C° 0 mm 1 mps 752 mmHg 73%

    Tomorrow, 27 August, Tuesday

    Time Temperature Precipitation Wind Pressure Humidity
    00:00 +15°C° 0 mm 2 mps 752 mmHg 74%
    01:00 +15°C° 0 mm 2 mps 751 mmHg 74%
    02:00 +15°C° 0 mm 2 mps 751 mmHg 74%
    03:00 +14°C° 0 mm 3 mps 751 mmHg 74%
    04:00 +14°C° 0 mm 3 mps 750 mmHg 74%
    05:00 +14°C° 0 mm 4 mps 749 mmHg 74%
    06:00 +14°C° 0 mm 4 mps 749 mmHg 74%
    07:00 +15°C° 0.3 mm 5 mps 748 mmHg 75%
    08:00 +16°C° 0.3 mm 5 mps 748 mmHg 76%
    09:00 +17°C° 0.3 mm 5 mps 748 mmHg 78%
    10:00 +19°C° 0.5 mm 5 mps 748 mmHg 73%
    11:00 +20°C° 0.5 mm 5 mps 747 mmHg 68%
    12:00 +21°C° 0.5 mm 5 mps 747 mmHg 64%
    13:00 +22°C° 0.1 mm 5 mps 747 mmHg 60%
    14:00 +22°C° 0.1 mm 6 mps 747 mmHg 57%
    15:00 +23°C° 0.1 mm 6 mps 747 mmHg 54%
    16:00 +22°C° 0 mm 5 mps 747 mmHg 57%
    17:00 +21°C° 0 mm 5 mps 747 mmHg 60%
    18:00 +20°C° 0 mm 4 mps 746 mmHg 64%
    19:00 +19°C° 0 mm 4 mps 747 mmHg 66%
    20:00 +17°C° 0 mm 4 mps 747 mmHg 69%
    21:00 +15°C° 0 mm 5 mps 747 mmHg 72%
    22:00 +14°C° 0 mm 4 mps 748 mmHg 75%
    23:00 +13°C° 0 mm 4 mps 748 mmHg 77%

    Day after tomorrow, 28 August, Wednesday

    Time Temperature Precipitation Wind Pressure Humidity
    00:00 +12°C° 0 mm 4 mps 748 mmHg 80%
    01:00 +11°C° 0 mm 4 mps 748 mmHg 81%
    02:00 +11°C° 0 mm 4 mps 748 mmHg 82%
    03:00 +10°C° 0 mm 4 mps 749 mmHg 84%
    04:00 +10°C° 0 mm 4 mps 749 mmHg 83%
    05:00 +8°C° 0 mm 5 mps 749 mmHg 82%
    06:00 +8°C° 0 mm 5 mps 749 mmHg 81%
    07:00 +9°C° 0 mm 5 mps 750 mmHg 74%
    08:00 +10°C° 0 mm 6 mps 750 mmHg 67%
    09:00 +11°C° 0 mm 7 mps 750 mmHg 59%
    10:00 +12°C° 0 mm 7 mps 750 mmHg 57%
    11:00 +12°C° 0 mm 7 mps 750 mmHg 55%
    12:00 +13°C° 0 mm 8 mps 750 mmHg 52%
    13:00 +14°C° 0 mm 7 mps 751 mmHg 53%
    14:00 +14°C° 0 mm 6 mps 751 mmHg 54%
    15:00 +14°C° 0 mm 6 mps 751 mmHg 54%
    16:00 +14°C° 0 mm 5 mps 751 mmHg 57%
    17:00 +13°C° 0 mm 5 mps 752 mmHg 59%
    18:00 +13°C° 0 mm 5 mps 752 mmHg 62%
    19:00 +11°C° 0 mm 4 mps 752 mmHg 66%
    20:00 +10°C° 0 mm 4 mps 752 mmHg 70%
    21:00 +9°C° 0 mm 3 mps 753 mmHg 74%
    22:00 +8°C° 0 mm 3 mps 753 mmHg 76%
    23:00 +7°C° 0 mm 3 mps 753 mmHg 78%

    29 August, Thursday

    Time Temperature Precipitation Wind Pressure Humidity
    00:00 +7°C° 0 mm 3 mps 753 mmHg 80%
    01:00 +5°C° 0 mm 3 mps 753 mmHg 83%
    02:00 +5°C° 0 mm 3 mps 753 mmHg 85%
    03:00 +5°C° 0 mm 3 mps 754 mmHg 87%
    04:00 +5°C° 0 mm 3 mps 754 mmHg 88%
    05:00 +4°C° 0 mm 3 mps 754 mmHg 90%
    06:00 +4°C° 0 mm 3 mps 754 mmHg 91%
    07:00 +7°C° 0 mm 3 mps 754 mmHg 81%
    08:00 +9°C° 0 mm 3 mps 754 mmHg 71%
    09:00 +11°C° 0 mm 4 mps 754 mmHg 62%
    10:00 +12°C° 0 mm 4 mps 754 mmHg 57%
    11:00 +14°C° 0 mm 4 mps 754 mmHg 51%
    12:00 +15°C° 0 mm 4 mps 754 mmHg 46%
    13:00 +17°C° 0 mm 4 mps 754 mmHg 47%
    14:00 +17°C° 0 mm 4 mps 753 mmHg 47%
    15:00 +18°C° 0 mm 4 mps 753 mmHg 48%
    16:00 +17°C° 0 mm 4 mps 753 mmHg 53%
    17:00 +15°C° 0 mm 4 mps 753 mmHg 58%
    18:00 +16°C° 0 mm 3 mps 752 mmHg 63%
    19:00 +13°C° 0 mm 3 mps 752 mmHg 69%
    20:00 +13°C° 0 mm 2 mps 752 mmHg 75%
    21:00 +10°C° 0 mm 2 mps 752 mmHg 81%
    22:00 +10°C° 0 mm 2 mps 752 mmHg 81%
    23:00 +10°C° 0 mm 2 mps 751 mmHg 80%

    30 August, Friday

    Time Temperature Precipitation Wind Pressure Humidity
    00:00 +11°C° 0 mm 1 mps 751 mmHg 79%
    01:00 +10°C° 0 mm 2 mps 751 mmHg 81%
    02:00 +10°C° 0 mm 2 mps 750 mmHg 83%
    03:00 +10°C° 0 mm 3 mps 750 mmHg 84%
    04:00 +11°C° 0 mm 3 mps 749 mmHg 86%
    05:00 +11°C° 0 mm 4 mps 749 mmHg 89%
    06:00 +11°C° 0 mm 4 mps 749 mmHg 91%
    07:00 +13°C° 0 mm 5 mps 749 mmHg 85%
    08:00 +14°C° 0 mm 6 mps 749 mmHg 79%
    09:00 +16°C° 0 mm 7 mps 749 mmHg 73%
    10:00 +16°C° 0 mm 6 mps 749 mmHg 75%
    11:00 +15°C° 0 mm 6 mps 749 mmHg 77%
    12:00 +15°C° 0 mm 6 mps 750 mmHg 79%
    13:00 +15°C° 0 mm 5 mps 750 mmHg 74%
    14:00 +15°C° 0 mm 5 mps 750 mmHg 68%
    15:00 +17°C° 0 mm 4 mps 750 mmHg 62%
    16:00 +15°C° 0 mm 4 mps 750 mmHg 62%
    17:00 +14°C° 0 mm 3 mps 751 mmHg 62%
    18:00 +15°C° 0 mm 2 mps 751 mmHg 63%
    19:00 +13°C° 0 mm 2 mps 751 mmHg 67%
    20:00 +12°C° 0 mm 2 mps 751 mmHg 72%
    21:00 +9°C° 0 mm 2 mps 751 mmHg 76%
    22:00 +9°C° 0 mm 1 mps 751 mmHg 78%
    23:00 +9°C° 0 mm 1 mps 752 mmHg 80%

    31 August, Saturday

    Time Temperature Precipitation Wind Pressure Humidity
    00:00 +8°C° 0 mm 1 mps 752 mmHg 81%
    01:00 +8°C° 0 mm 1 mps 752 mmHg 82%
    02:00 +8°C° 0 mm 1 mps 752 mmHg 83%
    03:00 +7°C° 0 mm 1 mps 752 mmHg 84%
    04:00 +7°C° 0 mm 1 mps 752 mmHg 85%
    05:00 +7°C° 0 mm 1 mps 752 mmHg 86%
    06:00 +7°C° 0 mm 1 mps 752 mmHg 86%
    07:00 +10°C° 0 mm 1 mps 752 mmHg 78%
    08:00 +12°C° 0 mm 2 mps 751 mmHg 70%
    09:00 +14°C° 0 mm 2 mps 751 mmHg 61%
    10:00 +15°C° 0 mm 2 mps 751 mmHg 57%
    11:00 +16°C° 0 mm 2 mps 751 mmHg 52%
    12:00 +18°C° 0 mm 2 mps 751 mmHg 48%
    13:00 +18°C° 0 mm 2 mps 750 mmHg 49%
    14:00 +19°C° 0 mm 2 mps 750 mmHg 51%
    15:00 +19°C° 0 mm 2 mps 750 mmHg 53%
    16:00 +19°C° 0 mm 2 mps 749 mmHg 58%
    17:00 +20°C° 0 mm 1 mps 749 mmHg 63%
    18:00 +20°C° 0 mm 1 mps 749 mmHg 69%
    19:00 +18°C° 0.1 mm 1 mps 749 mmHg 73%
    20:00 +16°C° 0.1 mm 1 mps 749 mmHg 77%
    21:00 +15°C° 0.1 mm 1 mps 749 mmHg 82%
    22:00 +15°C° 0 mm 1 mps 749 mmHg 84%
    23:00 +14°C° 0 mm 1 mps 749 mmHg 87%
    Show more